星链-4497 (STARLINK-4497 )

导读 | 星芒AI

STARLINK-4497 是 SpaceX Starlink 项目中的一颗低轨通信卫星,属于该星座的众多卫星之一,旨在为全球用户提供高速互联网服务。该卫星运行在约 550 公里的轨道高度,采用先进的通信技术,支持宽带数据传输。Starlink 卫星群通过分布式网络提升覆盖范围与连接稳定性,尤其服务于偏远地区。STARLINK-4497 于发射后自动加入星座系统,与其他卫星协同工作,为用户提供低延迟、高带宽的互联网接入服务。

基本信息
目录编号:
53411
目录名称:
STARLINK-4497
国际标识:
2022-097Z
轨道中心:
EARTH
卫星名称:
星链-4497
卫星全名:
星链-4497 (STARLINK-4497 )
卫星状态:
在轨 (已飞行1229 天)
发射日期:
2022-08-10 UTC
国别 :
美国 (US)
星等 :
--
轨道信息
数据来源 国际轨道数据
星历时间: 2025-12-21T02:12:42+0800
15小时前
查看轨道信息
半长轴: 6917.896km
偏心率: 0.000127
轨道倾角: 53.218°
近地点辐角 89.255°
升交点赤经 108.453°
平近点角 270.859°
近地点: 538.88km
远地点: 540.638km
周期: 95.438分钟
每日圈数: 15.08835
详细信息
固有亮度:
5
最大亮度:
2.5
卫星平台:
Starlink v1.5
覆盖范围:
全球
运营商:
太空探索技术公司
运营商所在国:
美国
制造商(研发单位):
太空探索技术公司
制造商所在国:
美国
使用方式:
暂无
卫星简介
星链(Starlink)计划是由太空探索技术公司(SpaceX)提出的一个巨型低轨卫星互联网星座项目,计划在2019年至2024年间在太空搭建由约1.2万颗卫星组成的“星链”网络,其中1584颗将部署在地球上空550千米处的近地轨道,并从2020年开始工作。该卫星仍在工作。
2D轨道图
3D轨道图
轨道高度分析图
轨道倾角分析图
轨道综合分析图
查看轨道综合分析图